Date String (YYYY-MM-DD hh:mm:ss) UTC,Instrument flags,Ambient pressure (hPa),Sample flow (lpm),Bypass flow (lpm),Sample temperature (°C),Ambient temperature (°C),ASC tube jacket temperature (°C),LED temperature (°C),Box temperature (°C),Sample RH (%),Span deviation,Mass concentration (μg/m³),Mass concentration (μg/m³),Mass concentration (μg/m³)
DateTimeUTC,F1_M11,P_M11,Q1_M11,Q2_M11,T1_M11,T2_M11,T3_M11,T4_M11,T5_M11,U1_M11,ZSPAN_M11,X0_M11,X2_M11,X1_M11
2021-12-21 02:00:00,,0826.2,4.99,0.00,26.2,25.1,00.0,35.2,27.8,08.8,0000.0,0029.50,0008.43,0005.25
2021-12-21 02:01:00,,0826.2,5.00,0.00,26.1,25.1,00.0,35.2,27.8,08.9,0000.0,0028.33,0008.37,0005.25
2021-12-21 02:02:00,,0826.1,5.00,0.00,26.1,25.1,00.0,35.2,27.8,08.8,0000.0,0027.25,0008.33,0005.25
2021-12-21 02:03:00,,0826.1,5.00,0.00,26.1,25.2,00.0,35.2,27.8,08.8,0000.0,0027.26,0008.43,0005.28
2021-12-21 02:04:00,,0826.0,5.01,0.00,26.1,25.1,00.0,35.2,27.8,08.8,0000.0,0027.08,0008.42,0005.28
2021-12-21 02:05:00,,0825.9,4.99,0.00,26.1,25.1,00.0,35.2,27.8,08.9,0000.0,0025.49,0008.39,0005.29
2021-12-21 02:06:00,,0825.8,5.00,0.00,26.1,25.2,00.0,35.1,27.8,08.9,0000.0,0025.04,0008.35,0005.30
2021-12-21 02:07:00,,0825.9,5.02,0.00,26.1,25.2,00.0,35.1,27.8,08.9,0000.0,0024.09,0008.25,0005.33
2021-12-21 02:08:00,,0826.0,4.99,0.00,26.1,25.2,00.0,35.1,27.8,09.0,0000.0,0023.72,0008.23,0005.33
2021-12-21 02:09:00,,0826.2,5.00,0.00,26.1,25.2,00.0,35.1,27.8,09.0,0000.0,0023.78,0008.15,0005.33
2021-12-21 02:10:00,,0826.2,4.99,0.00,26.1,25.2,00.0,35.1,27.8,08.9,0000.0,0023.29,0008.08,0005.34
2021-12-21 02:11:00,,0826.0,5.00,0.00,26.0,25.1,00.0,35.1,27.8,08.8,0000.0,0023.86,0008.04,0005.35
2021-12-21 02:12:00,,0825.8,5.01,0.00,26.0,25.1,00.0,35.1,27.8,08.8,0000.0,0026.88,0008.14,0005.37
2021-12-21 02:13:00,,0825.8,4.98,0.00,26.0,25.1,00.0,35.1,27.8,08.9,0000.0,0030.04,0008.24,0005.39
2021-12-21 02:14:00,,0825.9,5.00,0.00,26.0,25.1,00.0,35.1,27.7,08.9,0000.0,0030.12,0008.15,0005.39
2021-12-21 02:15:00,,0826.0,5.01,0.00,26.0,25.1,00.0,35.1,27.7,08.9,0000.0,0029.48,0008.13,0005.41
2021-12-21 02:16:00,,0826.1,4.99,0.00,26.0,25.0,00.0,35.0,27.6,09.0,0000.0,0029.60,0008.08,0005.42
2021-12-21 02:17:00,,0826.0,4.99,0.00,25.9,25.0,00.0,35.0,27.5,08.9,0000.0,0030.54,0008.05,0005.41
2021-12-21 02:18:00,,0826.0,5.01,0.00,25.9,24.9,00.0,35.0,27.5,09.0,0000.8,0031.96,0008.07,0005.41
2021-12-21 02:19:00,,0825.8,4.98,0.00,25.9,24.9,00.0,35.0,27.5,09.1,0000.0,0031.99,0008.05,0005.40
2021-12-21 02:20:00,,0825.7,5.00,0.00,25.9,24.9,00.0,35.0,27.6,09.1,0000.0,0031.64,0008.10,0005.40
2021-12-21 02:21:00,,0826.0,5.01,0.00,25.9,24.9,00.0,35.0,27.6,09.1,0002.7,0032.10,0008.15,0005.42
2021-12-21 02:22:00,,0826.1,4.99,0.00,25.9,24.9,00.0,34.9,27.6,09.1,0005.3,0031.14,0008.16,0005.43
2021-12-21 02:23:00,,0826.1,5.02,0.00,25.8,24.9,00.0,34.9,27.5,08.9,0003.6,0030.52,0008.15,0005.43
2021-12-21 02:24:00,,0826.2,4.98,0.00,25.8,24.8,00.0,34.9,27.4,08.9,0000.0,0027.71,0008.08,0005.43
2021-12-21 02:25:00,,0826.0,5.02,0.00,25.7,24.7,00.0,34.9,27.3,09.0,0000.0,0027.23,0008.12,0005.42
2021-12-21 02:26:00,,0826.0,4.98,0.00,25.7,24.7,00.0,34.8,27.4,09.0,0000.0,0026.50,0008.07,0005.41
2021-12-21 02:27:00,,0826.0,5.01,0.00,25.7,24.7,00.0,34.8,27.4,09.2,0000.0,0026.85,0008.02,0005.41
2021-12-21 02:28:00,,0826.2,5.00,0.00,25.7,24.7,00.0,34.8,27.4,09.2,0000.0,0025.79,0008.03,0005.42
2021-12-21 02:29:00,,0826.2,4.99,0.00,25.7,24.8,00.0,34.8,27.4,09.2,0000.0,0024.40,0008.00,0005.42
2021-12-21 02:30:00,,0826.0,5.01,0.00,25.7,24.8,00.0,34.8,27.3,09.2,0000.0,0023.65,0007.94,0005.42
2021-12-21 02:31:00,,0825.8,5.01,0.00,25.7,24.8,00.0,34.8,27.3,09.2,0000.0,0023.43,0007.96,0005.43
2021-12-21 02:32:00,,0825.9,5.00,0.00,25.6,24.8,00.0,34.8,27.3,09.2,0000.0,0024.79,0007.95,0005.42
2021-12-21 02:33:00,,0825.9,5.00,0.00,25.6,24.7,00.0,34.7,27.3,09.2,0000.0,0025.70,0008.06,0005.42
2021-12-21 02:34:00,,0826.0,5.01,0.00,25.6,24.7,00.0,34.7,27.3,09.2,0000.0,0025.38,0008.07,0005.42
2021-12-21 02:35:00,,0825.8,4.99,0.00,25.6,24.7,00.0,34.7,27.4,09.1,0000.0,0024.01,0008.07,0005.43
2021-12-21 02:36:00,,0825.8,5.00,0.00,25.6,24.7,00.0,34.7,27.4,09.2,0000.0,0023.91,0008.03,0005.43
2021-12-21 02:37:00,,0826.1,5.01,0.00,25.6,24.8,00.0,34.7,27.3,09.2,0000.0,0026.52,0008.01,0005.45
2021-12-21 02:38:00,,0825.7,5.01,0.00,25.6,24.7,00.0,34.7,27.3,09.2,0000.0,0027.97,0008.07,0005.47
2021-12-21 02:39:00,,0825.7,5.01,0.00,25.6,24.7,00.0,34.7,27.3,09.3,0001.4,0027.91,0008.09,0005.48
2021-12-21 02:40:00,,0825.7,5.00,0.00,25.6,24.7,00.0,34.7,27.4,09.3,0004.7,0027.72,0008.02,0005.50
2021-12-21 02:41:00,,0825.9,4.99,0.00,25.6,24.7,00.0,34.7,27.4,09.3,0004.6,0028.41,0008.06,0005.51
2021-12-21 02:42:00,,0825.9,5.01,0.00,25.6,24.7,00.0,34.7,27.3,09.2,0004.4,0029.80,0008.05,0005.53
2021-12-21 02:43:00,,0825.6,5.00,0.00,25.6,24.7,00.0,34.6,27.3,09.2,0004.7,0029.69,0008.05,0005.53
2021-12-21 02:44:00,,0825.5,5.00,0.00,25.6,24.7,00.0,34.6,27.3,09.2,0004.5,0029.67,0007.99,0005.53
2021-12-21 02:45:00,,0825.5,5.00,0.00,25.6,24.7,00.0,34.6,27.3,09.3,0004.4,0029.31,0008.02,0005.53
2021-12-21 02:46:00,,0825.6,5.00,0.00,25.6,24.7,00.0,34.6,27.3,09.4,0003.7,0029.41,0007.99,0005.54
2021-12-21 02:47:00,,0825.7,5.01,0.00,25.6,24.7,00.0,34.6,27.3,09.4,0004.8,0030.51,0007.99,0005.54
2021-12-21 02:48:00,,0825.6,5.00,0.00,25.6,24.7,00.0,34.6,27.3,09.4,0002.9,0029.28,0008.05,0005.54
2021-12-21 02:49:00,,0825.5,5.01,0.00,25.6,24.6,00.0,34.6,27.3,09.4,0003.0,0028.42,0008.02,0005.54
2021-12-21 02:50:00,,0825.5,5.00,0.00,25.6,24.6,00.0,34.6,27.3,09.4,0002.5,0029.21,0008.01,0005.54
2021-12-21 02:51:00,,0825.5,5.00,0.00,25.6,24.6,00.0,34.6,27.3,09.5,0003.1,0029.54,0008.00,0005.53
2021-12-21 02:52:00,,0825.6,4.98,0.00,25.6,24.6,00.0,34.6,27.3,09.4,0005.3,0029.03,0008.03,0005.53
2021-12-21 02:53:00,,0825.7,5.01,0.00,25.6,24.6,00.0,34.6,27.2,09.3,0003.6,0028.84,0008.01,0005.52
2021-12-21 02:54:00,,0825.6,4.99,0.00,25.5,24.6,00.0,34.6,27.2,09.1,0005.7,0028.27,0008.00,0005.52
2021-12-21 02:55:00,,0825.5,5.01,0.00,25.5,24.6,00.0,34.5,27.2,09.3,0003.2,0028.36,0007.96,0005.53
2021-12-21 02:56:00,,0825.5,4.99,0.00,25.5,24.6,00.0,34.5,27.2,09.3,0004.5,0028.23,0007.98,0005.55
2021-12-21 02:57:00,,0825.4,5.01,0.00,25.5,24.6,00.0,34.5,27.2,09.3,0004.8,0027.75,0007.99,0005.56
2021-12-21 02:58:00,,0825.4,4.99,0.00,25.5,24.6,00.0,34.5,27.2,09.3,0005.0,0027.09,0008.08,0005.58
2021-12-21 02:59:00,,0825.5,5.00,0.00,25.5,24.6,00.0,34.5,27.2,09.3,0004.9,0027.55,0008.10,0005.57
